Location: Arbon
(43.0005°N, 0.7472°E)
Time: 04:45:04
(UTC+00:00)

Vanguard 2 Rocket - Pass Details

Date: 25 June 2021
Orbit: 554 x 3325 km, 32.9° (Epoch: 26 July)

Event Time Altitude Azimuth Distance (km) Brightness Sun altitude
Rises 23:45:57 0° 279° (W) 6,991 11.6 -23.5°
Reaches altitude 10° 23:52:03 10° 269° (W) 5,623 10.9 -23.6°
Maximum altitude 00:03:54 26° 222° (SW) 3,474 9.4 -23.6°
Enters shadow 00:05:02 26° 214° (SW) 3,388 9.3 -23.6°
